[[{"header":{"parameterUnit":"m.s-1","parameterCategory":1,"la1":30.2991,"la2":30.254,"lo1":-89.0895,"lo2":-89.0444,"dy":0.0017,"dx":0.0017,"nx":28,"ny":28,"refTime":"2024-04-28T21:00:00:Z","depth":0,"parameterNumber":2,"parameterNumberName":"U-component_of_WINDS"},"data":[0,0,0,0,0,0,0,0,0,0,0,0,0,0,0,0,0,0,0,0,0,0,0,0,0,0,0,0,0,0,0,0,0,0,0,0,0,0,0,0,0,0,0,0,0,0,0,0,0,0,0,0,0,0,0,0,0,0,-4.828,-4.8281,0,-4.839,-4.8391,-4.8393,-4.8387,-4.8386,-4.8384,-4.8383,-4.8493,-4.8497,-4.8502,0,0,0,0,0,0,0,0,0,0,0,0,0,-4.8064,-4.8068,-4.828,-4.8281,-4.8283,-4.839,-4.8391,-4.8393,-4.8388,-4.8386,-4.8384,-4.8382,-4.8492,-4.8497,-4.8502,0,0,0,0,0,0,0,0,0,0,0,0,0,-4.8164,-4.8069,-4.828,-4.8293,-4.8295,-4.839,-4.8391,-4.8393,-4.8388,-4.8386,-4.8383,-4.8381,-4.849,-4.8496,-4.8503,-4.859,0,0,-4.8523,-4.8526,0,0,0,0,0,0,0,0,-4.8158,-4.8172,-4.829,-4.8292,-4.8295,-4.8373,-4.8356,-4.8459,-4.8389,-4.8353,-4.8383,-4.838,-4.8455,-4.8464,-4.849,-4.8596,-4.86,-4.8524,-4.8528,-4.853,-4.8532,0,0,0,0,0,0,0,-4.8151,-4.8167,-4.8323,-4.8291,-4.8295,-4.8293,-4.8305,-4.8375,-4.8415,-4.8356,-4.8356,-4.8369,-4.8456,-4.8484,-4.8492,-4.8602,-4.8523,-4.8529,-4.8533,-4.8536,-4.8785,-4.8787,0,0,0,0,0,0,-4.8142,-4.8162,-4.832,-4.8327,-4.822,-4.8299,-4.8312,-4.835,-4.8415,-4.8422,-4.8371,-4.8368,-4.8473,-4.8485,-4.8496,-4.8602,-4.853,-4.8537,-4.854,-4.8782,-4.8785,-4.8788,0,0,0,0,0,0,-4.8137,-4.8156,-4.8315,-4.8244,-4.8264,-4.8305,-4.8348,-4.8353,-4.8381,-4.8426,-4.8433,-4.8392,-4.8472,-4.8487,-4.8567,-4.8606,-4.854,-4.8546,-4.8779,-4.8783,-4.8787,-4.8815,0,0,0,0,0,0,-4.8131,-4.8154,-4.8188,-4.8245,-4.8268,-4.8385,-4.835,-4.8357,-4.8393,-4.839,-4.8448,-4.8455,-4.8471,-4.8557,-4.8574,-4.8614,-4.8551,-4.8776,-4.8781,-4.8786,-4.8811,-4.8819,-4.8827,0,0,0,0,0,-4.8123,-4.8191,-4.819,-4.8209,-4.8311,-4.8387,-4.84,-4.8419,-4.8396,-4.843,-4.8459,-4.8453,-4.86,-4.8566,-4.8584,-4.8627,-4.8773,-4.8779,-4.8785,-4.8807,-4.8818,-4.8827,0,0,0,0,0,0,-4.8137,-4.8199,-4.8198,-4.8287,-4.8332,-4.8386,-4.8429,-4.8429,-4.8481,-4.8477,-4.8497,-4.851,-4.859,-4.8617,-4.8578,-4.8715,-4.8683,-4.8693,-4.8694,-4.8704,-4.8712,-4.8703,-4.8556,0,0,0,0,0,-4.815,-4.8207,-4.8258,-4.8331,-4.8354,-4.8388,-4.8422,-4.8432,-4.848,-4.8498,-4.8533,-4.8579,-4.8635,-4.8672,-4.8726,-4.8816,-4.8827,-4.8854,-4.8862,-4.8868,-4.8876,-4.8925,-4.8937,-4.8808,-4.8808,-4.8808,0,0,-4.8178,-4.8219,-4.8254,-4.8335,-4.8371,-4.8429,-4.8404,-4.8466,-4.8509,-4.8508,-4.8585,-4.8613,-4.8665,-4.875,-4.8789,-4.8775,-4.8915,-4.8876,-4.8881,-4.8885,-4.8932,-4.8944,-4.8955,-4.8812,-4.8811,-4.8811,0,0,-4.8258,-4.8296,-4.836,-4.8397,-4.8453,-4.8475,-4.8491,-4.8546,-4.8564,-4.8643,-4.8643,-4.8695,-4.8791,-4.8828,-4.886,-4.8956,-4.8952,-4.8973,-4.9014,-4.9062,-4.9072,-4.9081,-4.9113,-4.9125,-4.8981,-4.8981,-4.8981,0,-4.8285,-4.8373,-4.8393,-4.8456,-4.8491,-4.8494,-4.856,-4.8595,-4.8665,-4.8689,-4.8673,-4.8794,-4.883,-4.8923,-4.8947,-4.8973,-4.8991,-4.8965,-4.9069,-4.9078,-4.9087,-4.9118,-4.913,-4.8983,-4.8983,-4.8983,-4.8983,0,-4.8403,-4.8464,-4.8509,-4.8578,-4.8619,-4.8682,-4.8712,-4.8751,-4.8759,-4.8783,-4.8863,-4.8906,-4.8969,-4.8993,-4.9,-4.9088,-4.9077,-4.9065,-4.9033,-4.9101,-4.913,-4.9143,-4.8986,-4.8986,-4.8985,-4.8985,0,0,-4.8491,-4.8572,-4.8588,-4.8619,-4.8682,-4.8729,-4.8793,-4.8855,-4.8888,-4.8937,-4.899,-4.9073,-4.9063,-4.9099,-4.9111,-4.9153,-4.9224,-4.9135,-4.9137,-4.9149,-4.9322,-4.9328,-4.9342,-4.9224,-4.9226,-4.9228,-4.9317,0,-4.8576,-4.869,-4.8711,-4.881,-4.8866,-4.887,-4.8926,-4.897,-4.8995,-4.9046,-4.9073,-4.9131,-4.9114,-4.9135,-4.9177,-4.9207,-4.9259,-4.9201,-4.9272,-4.9274,-4.9256,-4.9358,-4.9366,-4.9447,-4.9328,-4.933,-4.9332,0,-4.8689,-4.8742,-4.8846,-4.8902,-4.8926,-4.8976,-4.9035,-4.9084,-4.9134,-4.915,-4.9191,-4.9199,-4.9265,-4.9233,-4.9324,-4.9284,-4.9315,-4.9334,-4.9337,-4.9342,-4.9305,-4.9364,-4.9474,-4.9485,-4.9351,-4.9349,-4.9348,0,-4.8741,-4.8838,-4.8913,-4.894,-4.9007,-4.9042,-4.9071,-4.9119,-4.9156,-4.9208,-4.9231,-4.929,-4.9322,-4.9367,-4.9391,-4.9366,-4.948,-4.945,-4.9493,-4.9492,-4.9514,-4.9512,-4.9628,-4.9538,-4.9538,-4.9538,-4.9538,0,-4.8832,-4.8895,-4.8937,-4.8983,-4.9054,-4.9079,-4.9148,-4.9177,-4.922,-4.9271,-4.928,-4.9328,-4.9357,-4.9409,-4.9428,-4.95,-4.9515,-4.9528,-4.9532,-4.9526,-4.9524,-4.9544,-4.9538,-4.9541,-4.9541,-4.954,-4.9539,0,-4.8901,-4.8932,-4.9013,-4.9071,-4.9087,-4.9136,-4.9185,-4.923,-4.9256,-4.932,-4.9337,-4.9377,-4.9439,-4.9468,-4.9544,-4.9557,-4.9638,-4.9639,-4.962,-4.9621,-4.9662,-4.9657,-4.9793,-4.9812,-4.9712,-4.9712,-4.9713,0,-4.8955,-4.9004,-4.9067,-4.9102,-4.9133,-4.9189,-4.9227,-4.9253,-4.9292,-4.9354,-4.9391,-4.9453,-4.9504,-4.9602,-4.9638,-4.9696,-4.9697,-4.9741,-4.9706,-4.9698,-4.9696,-4.9691,-4.9696,-4.9747,-4.9748,-4.9748,-4.9749,0,-4.9048,-4.9062,-4.9116,-4.9175,-4.922,-4.9268,-4.9315,-4.9344,-4.9378,-4.9421,-4.9484,-4.9524,-4.9603,-4.9664,-4.9725,-4.9755,-4.9757,-4.9761,-4.9773,-4.9766,-4.9753,-4.9759,-4.9635,-4.9756,-4.9756,-4.9755,-4.9755,-4.9754,-4.9111,-4.9154,-4.9205,-4.9265,-4.9304,-4.9348,-4.9392,-4.9424,-4.9478,-4.9544,-4.9557,-4.9624,-4.9674,-4.9756,-4.9789,-4.9841,-4.9831,-4.985,-4.9854,-4.9858,-4.9859,-4.9747,-4.9853,-4.9853,-4.9853,-4.9852,-4.9852,0,-4.9203,-4.9236,-4.9291,-4.9357,-4.9404,-4.9405,-4.9457,-4.9496,-4.9555,-4.9602,-4.9653,-4.9726,-4.9786,-4.9827,-4.9887,-4.9922,-4.9924,-4.9937,-4.9933,-4.994,-4.9866,-4.9848,-4.9933,-4.9933,-4.9933,-4.9933,-4.9933,-4.9933,-4.9256,-4.9329,-4.9349,-4.9441,-4.9474,-4.9541,-4.957,-4.9611,-4.9648,-4.973,-4.978,-4.9807,-4.9851,-4.9915,-4.997,-4.9981,-5.0002,-5.0014,-5.0024,-4.9953,-4.9945,-4.9937,-4.992,-5.0019,-5.0019,-5.0093,-5.0094,-5.0094]},{"header":{"parameterUnit":"m.s-1","parameterCategory":1,"la1":30.2991,"la2":30.254,"lo1":-89.0895,"lo2":-89.0444,"dy":0.0017,"dx":0.0017,"nx":28,"ny":28,"refTime":"2024-04-28T21:00:00:Z","depth":0,"parameterNumber":3,"parameterNumberName":"V-component_of_WINDS"},"data":[0,0,0,0,0,0,0,0,0,0,0,0,0,0,0,0,0,0,0,0,0,0,0,0,0,0,0,0,0,0,0,0,0,0,0,0,0,0,0,0,0,0,0,0,0,0,0,0,0,0,0,0,0,0,0,0,0,0,4.3232,4.3232,0,4.3218,4.3217,4.3217,4.3132,4.313,4.3128,4.3126,4.3111,4.3113,4.3114,0,0,0,0,0,0,0,0,0,0,0,0,0,4.3188,4.319,4.3232,4.3232,4.3232,4.3218,4.3217,4.3217,4.3132,4.313,4.3127,4.3125,4.3111,4.3113,4.3115,0,0,0,0,0,0,0,0,0,0,0,0,0,4.3194,4.319,4.3232,4.3188,4.3184,4.3218,4.3217,4.3217,4.3133,4.313,4.3127,4.3124,4.311,4.3113,4.3115,4.319,0,0,4.3122,4.3123,0,0,0,0,0,0,0,0,4.3194,4.3196,4.3195,4.3191,4.3186,4.3173,4.3196,4.3208,4.3134,4.3152,4.3126,4.3122,4.3135,4.3135,4.3139,4.319,4.3189,4.3122,4.3123,4.3124,4.3125,0,0,0,0,0,0,0,4.3194,4.3196,4.3226,4.3195,4.319,4.3169,4.3167,4.3198,4.3161,4.315,4.3144,4.3144,4.3132,4.3137,4.3138,4.3189,4.3122,4.3124,4.3125,4.3126,4.3303,4.3306,0,0,0,0,0,0,4.3199,4.3196,4.3227,4.3226,4.3183,4.3173,4.317,4.3181,4.316,4.3154,4.3146,4.314,4.3134,4.3135,4.3137,4.3224,4.3124,4.3126,4.3128,4.3299,4.3303,4.3307,0,0,0,0,0,0,4.3199,4.3203,4.3228,4.3209,4.3211,4.3177,4.319,4.3182,4.3187,4.3157,4.315,4.3158,4.3132,4.3134,4.3178,4.3223,4.3128,4.313,4.3295,4.3301,4.3305,4.34,0,0,0,0,0,0,4.3198,4.3203,4.3231,4.3211,4.3212,4.3269,4.3193,4.3184,4.3191,4.3182,4.3166,4.3161,4.313,4.3175,4.318,4.3224,4.3131,4.3291,4.3298,4.3304,4.3393,4.3407,4.342,0,0,0,0,0,4.3197,4.3258,4.3233,4.3237,4.3246,4.3271,4.3272,4.3235,4.3195,4.3223,4.3204,4.3161,4.3217,4.318,4.3185,4.3231,4.3288,4.3296,4.3303,4.3386,4.3405,4.342,0,0,0,0,0,0,4.3284,4.3255,4.3226,4.3283,4.3281,4.3257,4.3291,4.3255,4.3264,4.3255,4.3209,4.3207,4.3258,4.3249,4.3208,4.3303,4.3245,4.3254,4.3307,4.3324,4.3338,4.3338,4.3133,0,0,0,0,0,4.331,4.3333,4.3306,4.3359,4.3359,4.3326,4.3335,4.3307,4.3302,4.3301,4.3285,4.3282,4.3299,4.3311,4.3325,4.3392,4.3387,4.3425,4.3439,4.3451,4.3458,4.3493,4.351,4.3331,4.3331,4.3331,0,0,4.3364,4.3351,4.3367,4.3376,4.337,4.3395,4.3325,4.3354,4.3372,4.3305,4.3345,4.3335,4.3329,4.3385,4.3408,4.3378,4.3507,4.346,4.347,4.3471,4.3503,4.352,4.3535,4.3336,4.3335,4.3335,0,0,4.3474,4.3466,4.351,4.3506,4.3499,4.3477,4.3488,4.347,4.346,4.3501,4.3451,4.3473,4.3503,4.3501,4.3504,4.3616,4.3577,4.3622,4.3694,4.3729,4.3743,4.3755,4.3795,4.381,4.3631,4.3631,4.3631,0,4.3541,4.3576,4.3536,4.3569,4.3574,4.3516,4.356,4.3558,4.3557,4.3562,4.3529,4.3567,4.3558,4.3613,4.3641,4.3646,4.3657,4.3623,4.3744,4.3756,4.3767,4.3804,4.382,4.3636,4.3636,4.3635,4.3635,0,4.366,4.3685,4.3721,4.3721,4.3731,4.3769,4.3736,4.3751,4.3722,4.3704,4.3747,4.3735,4.3746,4.3758,4.373,4.3809,4.3791,4.3752,4.3692,4.379,4.3824,4.3839,4.3644,4.3642,4.364,4.3639,0,0,4.3822,4.3802,4.3815,4.3815,4.3804,4.3823,4.386,4.3871,4.3885,4.3886,4.3915,4.3943,4.3907,4.3911,4.3883,4.3914,4.4004,4.3871,4.387,4.3896,4.4091,4.412,4.4137,4.3979,4.3982,4.3984,4.4091,0,4.3928,4.3988,4.3954,4.4019,4.4042,4.3989,4.402,4.4018,4.4002,4.402,4.4003,4.4023,4.3974,4.3976,4.4004,4.3987,4.4043,4.3979,4.4006,4.4007,4.4008,4.4155,4.4186,4.4288,4.4105,4.4107,4.4108,0,4.4058,4.4066,4.4134,4.4119,4.4128,4.4157,4.4165,4.4183,4.4179,4.4166,4.4171,4.4137,4.4172,4.4115,4.4163,4.4121,4.413,4.4124,4.4127,4.4127,4.4063,4.4159,4.4319,4.4335,4.4129,4.4128,4.4126,0,4.417,4.4197,4.4241,4.4243,4.4228,4.425,4.4244,4.4238,4.4247,4.4255,4.426,4.4272,4.4278,4.4289,4.4258,4.422,4.4311,4.4251,4.4301,4.4302,4.4322,4.4321,4.4485,4.4329,4.4329,4.4329,4.4329,0,4.4291,4.4334,4.4291,4.4319,4.4366,4.4328,4.4376,4.4365,4.436,4.4384,4.4339,4.4363,4.4322,4.4342,4.4319,4.4363,4.4366,4.4356,4.435,4.436,4.4361,4.4365,4.4356,4.4333,4.4332,4.4331,4.4331,0,4.4423,4.4396,4.444,4.4423,4.442,4.4456,4.4441,4.4466,4.4448,4.448,4.4485,4.4457,4.4479,4.445,4.4469,4.4453,4.4513,4.4496,4.4514,4.4509,4.4561,4.4556,4.4732,4.4754,4.4585,4.4587,4.4588,0,4.4501,4.4533,4.452,4.4533,4.4531,4.4553,4.4562,4.4526,4.4538,4.4538,4.4563,4.4581,4.4593,4.463,4.4612,4.4626,4.4609,4.467,4.461,4.462,4.4609,4.4607,4.4611,4.4681,4.4683,4.4685,4.4686,0,4.4643,4.4628,4.4644,4.4656,4.4669,4.4676,4.468,4.4694,4.4656,4.4672,4.4694,4.4703,4.4723,4.4742,4.4752,4.4746,4.4711,4.4705,4.4718,4.4728,4.4737,4.4733,4.4547,4.4701,4.47,4.4699,4.4698,4.4697,4.475,4.4776,4.4772,4.4791,4.479,4.4796,4.4818,4.4804,4.4821,4.4834,4.4813,4.484,4.4837,4.4847,4.4846,4.4868,4.4841,4.4859,4.4863,4.4868,4.4876,4.4735,4.4869,4.4869,4.4868,4.4868,4.4868,0,4.4889,4.4884,4.4902,4.4909,4.4925,4.4891,4.4894,4.4909,4.4934,4.4934,4.4948,4.4973,4.4992,4.4976,4.4991,4.5011,4.4995,4.5016,4.5014,4.5013,4.4899,4.4886,4.5029,4.5029,4.5029,4.5029,4.5029,4.5029,4.4963,4.5007,4.4992,4.5035,4.503,4.5056,4.5061,4.5066,4.5066,4.5097,4.5112,4.5102,4.5096,4.511,4.5126,4.5121,4.5128,4.5155,4.5144,4.5037,4.5021,4.5006,4.4994,4.5157,4.5157,4.5257,4.5258,4.5259]}]]